This demonstration page uses our WeatherBlox Daily Observations layout. Learn more.

38.89511, -77.03637

Hourly Observations for April 19, 2015

Temp ( °F °C ) Dew Point ( °F °C ) Humidity (%) Winds ( mph kmh ) Pressure ( in mb ) Visibility ( mi km ) Precip ( " mm )
12:52 am 00:52 Mostly Cloudy 65 18.3 56 13.3 73 73 S 5 7 30.01 1016 10 16.0934 0 0
1:52 am 01:52 Mostly Cloudy 63 17.2 54 12.2 73 73 S 6 9 30.02 1017 10 16.0934 0 0
2:52 am 02:52 Mostly Cloudy 65 18.3 53 11.7 66 66 NE 12 19 30.04 1017 10 16.0934 0 0
3:52 am 03:52 Mostly Cloudy 65 18.3 50 10 59 59 NE 9 15 30.04 1017 10 16.0934 0 0
4:52 am 04:52 Mostly Cloudy 65 18.3 49 9.4 56 56 ENE 10 17 30.07 1018 10 16.0934 0 0
5:52 am 05:52 Mostly Cloudy 65 18.3 39 3.9 39 39 ENE 12 19 30.09 1019 10 16.0934 0 0
6:52 am 06:52 Cloudy 63 17.2 35 1.7 35 35 ENE 12 19 30.12 1020 10 16.0934 0 0
7:52 am 07:52 Cloudy 63 17.2 36 2.2 37 37 ENE 9 15 30.15 1021 10 16.0934 0 0
8:52 am 08:52 Cloudy 64 17.8 37 2.8 37 37 E 14 22 30.15 1021 10 16.0934 0.01 0.254
9:52 am 09:52 Cloudy 65 18.3 40 4.4 40 40 E 14 22 30.16 1021 10 16.0934 0 0
10:52 am 10:52 Mostly Cloudy 66 18.9 41 5 40 40 E 14 22 30.17 1022 10 16.0934 0 0
11:52 am 11:52 Mostly Cloudy 68 20 44 6.7 42 42 E 15 24 30.16 1022 10 16.0934 0 0
12:52 pm 12:52 Mostly Cloudy 67 19.4 47 8.3 49 49 E 16 26 30.12 1020 10 16.0934 0 0
1:52 pm 13:52 Mostly Cloudy 69 20.6 49 9.4 49 49 ESE 16 26 30.1 1019 10 16.0934 0 0
2:52 pm 14:52 Mostly Cloudy 69 20.6 49 9.4 49 49 E 17 28 30.1 1019 10 16.0934 0 0
3:52 pm 15:52 Cloudy 66 18.9 49 9.4 54 54 ESE 17 28 30.08 1019 10 16.0934 0 0
4:52 pm 16:52 Cloudy 65 18.3 48 8.9 54 54 E 15 24 30.08 1019 10 16.0934 0 0
5:52 pm 17:52 Cloudy 63 17.2 46 7.8 54 54 E 18 30 30.06 1018 10 16.0934 0 0
6:47 pm 18:47 Cloudy with Light Rain 61 16 45 7 55 55 E 14 22 30.06 1018 9 14.48406 0 0.0254
6:52 pm 18:52 Cloudy with Light Rain 60 15.6 45 7.2 58 58 ENE 16 26 30.05 1018 10 16.0934 0.01 0.254
6:59 pm 18:59 Cloudy with Light Rain 59 15 45 7 59 59 E 14 22 30.06 1018 10 16.0934 0 0.0254
7:52 pm 19:52 Cloudy with Light Rain 57 13.9 45 7.2 64 64 ENE 9 15 30.02 1017 10 16.0934 0.01 0.254
8:52 pm 20:52 Cloudy with Light Rain 57 13.9 48 8.9 72 72 E 10 17 30.01 1016 9 14.48406 0.02 0.508
9:52 pm 21:52 Cloudy with Rain 55 12.8 50 10 83 83 E 10 17 29.98 1015 4 6.43736 0.09 2.286
10:52 pm 22:52 Cloudy with Light Rain 55 12.8 50 10 83 83 E 17 28 29.92 1013 4 6.43736 0.1 2.54
10:55 pm 22:55 Cloudy with Light Rain 55 13 50 10 82 82 E 15 24 29.94 1014 6 9.65604 0 0.0254
11:52 pm 23:52 Cloudy with Light Rain 56 13.3 51 10.6 84 84 E 16 26 29.88 1012 6 9.65604 0.05 1.27

Powered by AerisWeather